TimePST,TemperatureF,Dew PointF,Humidity,Sea Level PressureIn,VisibilityMPH,Wind Direction,Wind SpeedMPH,Gust SpeedMPH,PrecipitationIn,Events,Conditions,WindDirDegrees,DateUTC
12:56 AM,23.0,15.8,74,29.96,10.0,NW,4.6,-,N/A,,Clear,310,2012-12-16 08:56:00
1:56 AM,24.1,18.0,77,29.99,10.0,NW,4.6,-,N/A,,Clear,320,2012-12-16 09:56:00
2:56 AM,25.0,17.1,72,30.00,10.0,Calm,Calm,-,N/A,,Clear,0,2012-12-16 10:56:00
3:56 AM,24.1,18.0,77,30.01,10.0,NW,3.5,-,N/A,,Clear,310,2012-12-16 11:56:00
4:56 AM,24.1,18.0,77,30.03,10.0,NNW,5.8,-,N/A,,Clear,340,2012-12-16 12:56:00
5:56 AM,26.1,19.0,75,30.05,10.0,North,4.6,-,N/A,,Clear,10,2012-12-16 13:56:00
6:56 AM,28.0,19.0,69,30.05,10.0,Calm,Calm,-,N/A,,Clear,0,2012-12-16 14:56:00
7:56 AM,28.9,21.0,72,30.04,10.0,NW,4.6,-,N/A,,Clear,310,2012-12-16 15:56:00
8:56 AM,33.1,21.9,64,30.05,10.0,Calm,Calm,-,N/A,,Partly Cloudy,0,2012-12-16 16:56:00
9:56 AM,35.1,21.9,59,30.08,10.0,Calm,Calm,-,N/A,,Mostly Cloudy,0,2012-12-16 17:56:00
10:56 AM,37.9,21.0,51,30.07,10.0,Calm,Calm,-,N/A,,Partly Cloudy,0,2012-12-16 18:56:00
11:56 AM,39.9,21.0,47,30.05,10.0,Calm,Calm,-,N/A,,Clear,0,2012-12-16 19:56:00
12:56 PM,42.1,21.9,45,30.03,10.0,Calm,Calm,-,N/A,,Clear,0,2012-12-16 20:56:00
1:56 PM,42.1,21.9,45,30.01,10.0,Calm,Calm,-,N/A,,Scattered Clouds,0,2012-12-16 21:56:00
2:56 PM,44.1,21.9,42,30.01,10.0,Calm,Calm,-,N/A,,Partly Cloudy,0,2012-12-16 22:56:00
3:56 PM,42.1,23.0,47,30.02,10.0,North,3.5,-,N/A,,Overcast,360,2012-12-16 23:56:00
4:56 PM,39.0,23.0,53,30.03,10.0,North,3.5,-,N/A,,Overcast,360,2012-12-17 00:56:00
5:56 PM,37.0,21.9,54,30.03,10.0,Calm,Calm,-,N/A,,Clear,0,2012-12-17 01:56:00
6:56 PM,32.0,21.9,66,30.04,10.0,West,3.5,-,N/A,,Clear,280,2012-12-17 02:56:00
7:56 PM,30.0,19.9,66,30.06,8.0,West,3.5,-,N/A,,Clear,270,2012-12-17 03:56:00
8:56 PM,25.0,18.0,75,30.09,10.0,WNW,5.8,-,N/A,,Clear,290,2012-12-17 04:56:00
9:56 PM,24.1,17.1,75,30.09,10.0,NW,5.8,-,N/A,,Clear,320,2012-12-17 05:56:00
10:56 PM,23.0,17.1,78,30.08,10.0,NW,6.9,-,N/A,,Clear,310,2012-12-17 06:56:00
11:56 PM,19.9,15.1,81,30.07,10.0,NW,6.9,-,N/A,,Clear,320,2012-12-17 07:56:00